| time (UTC) | temp F | wind direction | speed MPH | gust MPH | rain 1hr in | rain 24hr in | rain mn in | humidity % | barometer mb |
| 20260507024528 | 71 | 51 | 3.0 | 9.0 | 0.00 | 0.00 | 0.00 | 90 | 1010.1 |
| 20260507023030 | 71 | 51 | 5.0 | 10.0 | 0.00 | 0.00 | 0.00 | 90 | 1010.2 |
| 20260507021533 | 71 | 51 | 5.0 | 11.0 | 0.00 | 0.00 | 0.00 | 90 | 1010.2 |
| 20260507020036 | 71 | 51 | 5.0 | 12.0 | 0.00 | 0.00 | 0.00 | 90 | 1010.4 |
| 20260507014530 | 71 | 51 | 5.0 | 9.0 | 0.00 | 0.00 | 0.00 | 90 | 1010.4 |
| 20260507013043 | 71 | 51 | 4.0 | 9.0 | 0.00 | 0.00 | 0.00 | 90 | 1010.7 |
| 20260507011529 | 71 | 51 | 4.0 | 7.0 | 0.00 | 0.00 | 0.00 | 90 | 1010.8 |
| 20260507010034 | 71 | 51 | 7.0 | 10.0 | 0.00 | 0.00 | 0.00 | 90 | 1010.9 |
| 20260507004528 | 72 | 51 | 5.0 | 12.0 | 0.00 | 0.00 | 0.00 | 90 | 1011.0 |
| 20260507003038 | 72 | 51 | 6.0 | 12.0 | 0.00 | 0.00 | 0.00 | 89 | 1011.3 |
| 20260507001527 | 72 | 51 | 6.0 | 11.0 | 0.00 | 0.00 | 0.00 | 89 | 1011.4 |
| 20260507000034 | 72 | 51 | 5.0 | 10.0 | 0.00 | 0.00 | 0.00 | 89 | 1011.4 |
| 20260506234528 | 72 | 51 | 6.0 | 10.0 | 0.00 | 0.00 | 0.00 | 88 | 1011.6 |
| 20260506233028 | 72 | 51 | 6.0 | 10.0 | 0.00 | 0.00 | 0.00 | 88 | 1011.8 |
| 20260506231528 | 72 | 51 | 5.0 | 9.0 | 0.00 | 0.00 | 0.00 | 88 | 1011.8 |
| 20260506230029 | 72 | 51 | 4.0 | 9.0 | 0.00 | 0.00 | 0.00 | 87 | 1011.6 |
| 20260506224533 | 72 | 51 | 2.0 | 9.0 | 0.00 | 0.00 | 0.00 | 87 | 1011.5 |
| 20260506223039 | 72 | 51 | 5.0 | 10.0 | 0.00 | 0.00 | 0.00 | 87 | 1011.4 |
| 20260506221528 | 72 | 51 | 4.0 | 9.0 | 0.00 | 0.00 | 0.00 | 87 | 1011.3 |
| 20260506220030 | 72 | 51 | 4.0 | 7.0 | 0.00 | 0.00 | 0.00 | 87 | 1011.2 |
| 20260506214538 | 72 | 51 | 1.0 | 10.0 | 0.00 | 0.00 | 0.00 | 86 | 1011.3 |
| 20260506213028 | 72 | 51 | 6.0 | 18.0 | 0.00 | 0.00 | 0.00 | 86 | 1011.2 |
| 20260506211528 | 73 | 51 | 4.0 | 14.0 | 0.00 | 0.00 | 0.00 | 86 | 1011.1 |
| 20260506210030 | 72 | 51 | 8.0 | 14.0 | 0.00 | 0.00 | 0.00 | 86 | 1011.2 |
| 20260506204530 | 73 | 51 | 5.0 | 15.0 | 0.00 | 0.00 | 0.00 | 86 | 1011.2 |
| 20260506203027 | 73 | 51 | 6.0 | 15.0 | 0.00 | 0.00 | 0.00 | 87 | 1010.9 |
| 20260506201526 | 73 | 51 | 7.0 | 16.0 | 0.00 | 0.00 | 0.00 | 86 | 1010.8 |
| 20260506200028 | 73 | 51 | 5.0 | 14.0 | 0.00 | 0.00 | 0.00 | 86 | 1010.8 |
| 20260506194528 | 73 | 51 | 6.0 | 13.0 | 0.00 | 0.00 | 0.00 | 86 | 1010.9 |
| 20260506193028 | 73 | 51 | 5.0 | 16.0 | 0.00 | 0.00 | 0.00 | 85 | 1010.7 |
| 20260506191527 | 74 | 51 | 5.0 | 15.0 | 0.00 | 0.00 | 0.00 | 85 | 1010.7 |
| 20260506190028 | 74 | 51 | 7.0 | 15.0 | 0.00 | 0.00 | 0.00 | 85 | 1010.3 |
| 20260506184542 | 74 | 51 | 7.0 | 13.0 | 0.00 | 0.00 | 0.00 | 85 | 1010.0 |
| 20260506183037 | 74 | 51 | 7.0 | 13.0 | 0.00 | 0.00 | 0.00 | 85 | 1010.3 |
| 20260506181544 | 74 | 51 | 10.0 | 14.0 | 0.00 | 0.00 | 0.00 | 84 | 1010.0 |
| 20260506180034 | 75 | 51 | 7.0 | 16.0 | 0.00 | 0.00 | 0.00 | 83 | 1009.9 |
| 20260506174528 | 75 | 51 | 9.0 | 14.0 | 0.00 | 0.00 | 0.00 | 83 | 1009.9 |
| 20260506173031 | 76 | 51 | 7.0 | 15.0 | 0.00 | 0.00 | 0.00 | 83 | 1010.1 |
| 20260506171528 | 76 | 51 | 8.0 | 17.0 | 0.00 | 0.00 | 0.00 | 82 | 1010.1 |
| 20260506170028 | 75 | 51 | 9.0 | 19.0 | 0.00 | 0.00 | 0.00 | 82 | 1010.1 |
| 20260506164536 | 76 | 51 | 9.0 | 18.0 | 0.00 | 0.00 | 0.00 | 81 | 1010.1 |
| 20260506163030 | 76 | 51 | 9.0 | 17.0 | 0.00 | 0.00 | 0.00 | 81 | 1010.4 |
| 20260506161528 | 76 | 51 | 10.0 | 16.0 | 0.00 | 0.00 | 0.00 | 82 | 1010.7 |
| 20260506160030 | 76 | 51 | 8.0 | 17.0 | 0.00 | 0.00 | 0.00 | 81 | 1010.8 |
| 20260506154532 | 76 | 51 | 10.0 | 17.0 | 0.00 | 0.00 | 0.00 | 80 | 1010.9 |
| 20260506153029 | 76 | 51 | 10.0 | 17.0 | 0.00 | 0.00 | 0.00 | 79 | 1010.8 |
| 20260506151530 | 77 | 51 | 6.0 | 13.0 | 0.00 | 0.00 | 0.00 | 80 | 1011.0 |
| 20260506150033 | 76 | 51 | 9.0 | 17.0 | 0.00 | 0.00 | 0.00 | 81 | 1011.0 |
| 20260506144529 | 76 | 51 | 8.0 | 18.0 | 0.00 | 0.00 | 0.00 | 81 | 1011.0 |
| 20260506143031 | 76 | 51 | 8.0 | 16.0 | 0.00 | 0.00 | 0.00 | 80 | 1011.4 |
| 20260506141531 | 76 | 51 | 9.0 | 16.0 | 0.00 | 0.00 | 0.00 | 80 | 1011.5 |
| 20260506140030 | 76 | 51 | 8.0 | 17.0 | 0.00 | 0.00 | 0.00 | 81 | 1011.7 |
| 20260506134532 | 76 | 51 | 10.0 | 19.0 | 0.00 | 0.00 | 0.00 | 80 | 1011.8 |
| 20260506133027 | 76 | 51 | 11.0 | 18.0 | 0.00 | 0.00 | 0.00 | 80 | 1012.1 |
| 20260506131534 | 77 | 51 | 6.0 | 14.0 | 0.00 | 0.00 | 0.00 | 79 | 1012.2 |
| 20260506130028 | 76 | 51 | 4.0 | 14.0 | 0.00 | 0.00 | 0.00 | 81 | 1012.2 |
| 20260506124528 | 75 | 51 | 7.0 | 19.0 | 0.00 | 0.00 | 0.00 | 82 | 1012.3 |
| 20260506123053 | 75 | 51 | 10.0 | 21.0 | 0.00 | 0.00 | 0.00 | 82 | 1012.1 |
| 20260506121529 | 75 | 51 | 11.0 | 20.0 | 0.00 | 0.00 | 0.00 | 82 | 1012.3 |
| 20260506120029 | 75 | 51 | 12.0 | 22.0 | 0.00 | 0.00 | 0.00 | 82 | 1012.4 |
| 20260506114530 | 76 | 0 | 8.0 | 21.0 | 0.00 | 0.00 | 0.00 | 84 | 1012.5 |
| 20260506113038 | 75 | 51 | 10.0 | 23.0 | 0.00 | 0.00 | 0.00 | 85 | 1012.7 |
| 20260506111531 | 75 | 51 | 8.0 | 17.0 | 0.00 | 0.00 | 0.00 | 84 | 1012.9 |
| 20260506110030 | 75 | 51 | 8.0 | 17.0 | 0.00 | 0.00 | 0.00 | 84 | 1013.1 |
| 20260506104533 | 75 | 51 | 8.0 | 16.0 | 0.00 | 0.00 | 0.00 | 84 | 1013.1 |
| 20260506103027 | 75 | 51 | 10.0 | 15.0 | 0.00 | 0.00 | 0.00 | 83 | 1013.0 |
| 20260506101525 | 75 | 51 | 7.0 | 14.0 | 0.00 | 0.00 | 0.00 | 84 | 1012.7 |
| 20260506100028 | 75 | 51 | 5.0 | 14.0 | 0.00 | 0.00 | 0.00 | 86 | 1012.6 |
| 20260506094528 | 74 | 51 | 8.0 | 13.0 | 0.00 | 0.00 | 0.00 | 86 | 1012.5 |
| 20260506093027 | 73 | 51 | 4.0 | 14.0 | 0.00 | 0.00 | 0.00 | 88 | 1012.4 |
| 20260506091530 | 73 | 51 | 7.0 | 17.0 | 0.00 | 0.00 | 0.00 | 88 | 1012.4 |
| 20260506090033 | 73 | 51 | 7.0 | 17.0 | 0.00 | 0.00 | 0.00 | 89 | 1012.2 |
| 20260506084530 | 73 | 51 | 9.0 | 15.0 | 0.00 | 0.00 | 0.00 | 89 | 1012.0 |
| 20260506083028 | 72 | 51 | 4.0 | 15.0 | 0.00 | 0.00 | 0.00 | 91 | 1011.9 |
| 20260506081530 | 72 | 51 | 8.0 | 14.0 | 0.00 | 0.00 | 0.00 | 91 | 1012.0 |
| 20260506073030 | 72 | 51 | 6.0 | 12.0 | 0.00 | 0.00 | 0.00 | 92 | 1011.7 |
| 20260506071530 | 72 | 51 | 4.0 | 12.0 | 0.00 | 0.00 | 0.00 | 93 | 1011.7 |
| 20260506061528 | 72 | 51 | 6.0 | 11.0 | 0.00 | 0.00 | 0.00 | 92 | 1011.4 |
| 20260506044530 | 72 | 51 | 3.0 | 10.0 | 0.00 | 0.00 | 0.00 | 92 | 1010.7 |
| 20260506043030 | 72 | 51 | 5.0 | 7.0 | 0.00 | 0.00 | 0.00 | 91 | 1010.5 |
| 20260506041528 | 72 | 51 | 4.0 | 9.0 | 0.00 | 0.00 | 0.00 | 91 | 1010.8 |
| 20260506040030 | 72 | 51 | 4.0 | 7.0 | 0.00 | 0.00 | 0.00 | 91 | 1010.9 |
| 20260506034531 | 72 | 51 | 3.0 | 9.0 | 0.00 | 0.00 | 0.00 | 91 | 1010.9 |
| 20260506033030 | 72 | 51 | 4.0 | 9.0 | 0.00 | 0.00 | 0.00 | 91 | 1010.8 |
| 20260506031528 | 72 | 51 | 4.0 | 10.0 | 0.00 | 0.00 | 0.00 | 91 | 1010.8 |
| 20260506030037 | 72 | 51 | 4.0 | 10.0 | 0.00 | 0.00 | 0.00 | 91 | 1010.9 |